Location: Fours
(44.3167°N, 6.7000°E)
Time: 10:06:32
(UTC+00:00)

Cosmos 2298 Rocket - Pass Details

Date: 16 October 2021
Orbit: 776 x 783 km, 74.0° (Epoch: 07 December)

Event Time Altitude Azimuth Distance (km) Brightness Sun altitude
Rises 17:13:44 0° 184° (S) 3,247 7.4 -5.5°
Reaches altitude 10° 17:16:10 10° 179° (S) 2,322 6.6 -5.9°
Maximum altitude 17:21:14 50° 105° (ESE) 984 4.2 -6.8°
Drops below altitude 10° 17:26:21 10° 31° (NNE) 2,335 6.2 -7.7°
Sets 17:28:47 0° 26° (NNE) 3,266 7.0 -8.2°
